FW2014 Weather Reports


time (UTC)temp
C
wind
direction
speed
KPH
gust
KPH
rain 1hr
cm
rain 24hr
cm
rain mn
cm
humidity
%
barometer
mb
20260507074531 11 149 6.4 9.7 0.00 0.00 0.00 47 1015.4
20260507073025 11 201 0.0 9.7 0.00 0.00 0.00 53 1015.4
20260507071521 11 180 1.6 8.0 0.00 0.00 0.00 56 1015.3
20260507070017 11 205 0.0 1.6 0.00 0.00 0.00 57 1015.2
20260507064512 10 158 0.0 1.6 0.00 0.00 0.00 66 1015.2
20260507063009 10 152 0.0 0.0 0.00 0.00 0.00 69 1015.1
20260507061504 9 167 0.0 0.0 0.00 0.00 0.00 69 1015.1
20260507060104 7 174 0.0 0.0 0.00 0.00 0.00 69 1015.1
20260507054558 6 174 0.0 0.0 0.00 0.00 0.00 67 1015.0
20260507053052 5 176 0.0 0.0 0.00 0.00 0.00 61 1014.9
20260507051547 5 176 0.0 0.0 0.00 0.00 0.00 21 1014.6
20260507050044 2 176 0.0 0.0 0.00 0.00 0.00 28 1014.6
20260507044539 1 176 0.0 0.0 0.00 0.00 0.00 12 1014.6
20260507043043 0 176 0.0 0.0 0.00 0.00 0.00 15 1014.5
20260507041530 -1 176 0.0 0.0 0.00 0.00 0.00 9 1014.4
20260507040026 -1 176 0.0 0.0 0.00 0.00 0.00 12 1014.4
20260507034528 -2 176 0.0 0.0 0.00 0.00 0.00 15 1014.3
20260507033018 -2 176 0.0 0.0 0.00 0.00 0.00 17 1014.1
20260507031517 -1 176 0.0 0.0 0.00 0.00 0.00 15 1014.0
20260507030010 -1 176 0.0 0.0 0.00 0.00 0.00 16 1014.0
20260507024510 -1 176 0.0 0.0 0.00 0.00 0.00 20 1014.0
20260507023110 -1 176 0.0 0.0 0.00 0.00 0.00 20 1013.9
20260507021556 -1 176 0.0 0.0 0.00 0.00 0.00 22 1013.9
20260507020058 -1 176 0.0 0.0 0.00 0.00 0.00 24 1013.7
20260507014547 -1 176 0.0 0.0 0.00 0.00 0.00 23 1013.6
20260507013042 -1 176 0.0 0.0 0.00 0.00 0.00 28 1013.5
20260507011545 -1 176 0.0 0.0 0.00 0.00 0.00 31 1013.5
20260507010036 -1 176 0.0 0.0 0.00 0.00 0.00 31 1013.4
20260507004532 -1 176 0.0 0.0 0.00 0.00 0.00 25 1013.4
20260507003027 -1 176 0.0 0.0 0.00 0.00 0.00 34 1013.3
20260507001558 -1 176 0.0 0.0 0.00 0.00 0.00 36 1013.2
20260507000024 0 176 0.0 0.0 0.00 0.00 0.00 38 1013.2
20260506234521 0 176 0.0 0.0 0.00 0.00 0.00 33 1013.1
20260506233019 0 176 0.0 0.0 0.00 0.00 0.00 41 1013.1
20260506231517 0 176 0.0 0.0 0.00 0.00 0.00 46 1013.0
20260506230012 0 176 0.0 0.0 0.00 0.00 0.00 53 1012.9
20260506224508 0 176 0.0 0.0 0.00 0.00 0.00 58 1012.8
20260506223004 1 176 0.0 0.0 0.00 0.00 0.00 62 1012.7
20260506221501 1 176 0.0 0.0 0.00 0.00 0.00 64 1012.7
20260506220101 1 176 0.0 0.0 0.00 0.00 0.00 66 1012.6
20260506214556 1 176 0.0 0.0 0.00 0.00 0.00 68 1012.4
20260506213050 1 176 0.0 0.0 0.00 0.00 0.00 68 1012.3
20260506211546 1 176 0.0 0.0 0.00 0.00 0.00 68 1012.2
20260506210052 2 176 0.0 0.0 0.00 0.00 0.00 69 1012.2
20260506204540 2 175 0.0 0.0 0.00 0.00 0.00 69 1012.1
20260506203036 2 175 0.0 0.0 0.00 0.00 0.00 70 1012.1
20260506201529 2 175 0.0 0.0 0.00 0.00 0.00 70 1012.0
20260506200024 3 175 0.0 0.0 0.00 0.00 0.00 70 1011.9
20260506194520 4 175 0.0 0.0 0.00 0.00 0.00 69 1011.9
20260506193022 5 175 0.0 0.0 0.00 0.00 0.00 67 1011.7
20260506191512 5 175 0.0 0.0 0.00 0.00 0.00 64 1011.5
20260506190011 6 175 0.0 0.0 0.00 0.00 0.00 60 1011.4
20260506184503 8 175 0.0 0.0 0.00 0.00 0.00 54 1011.3
20260506183106 10 170 0.0 0.0 0.00 0.00 0.00 46 1011.2
20260506181556 12 178 0.0 4.8 0.00 0.00 0.00 40 1011.2
20260506180051 12 206 3.2 8.0 0.00 0.00 0.00 39 1011.3
20260506174543 12 159 3.2 9.7 0.00 0.00 0.00 40 1011.2
20260506173044 12 141 6.4 14.5 0.00 0.00 0.00 41 1011.1
20260506171536 12 183 3.2 16.1 0.00 0.00 0.00 42 1011.1
20260506170037 12 200 3.2 14.5 0.00 0.00 0.00 35 1011.0
20260506164543 13 161 6.4 16.1 0.00 0.00 0.00 34 1011.0
20260506163023 13 160 8.0 17.7 0.00 0.00 0.00 32 1011.1
20260506161521 13 217 12.9 19.3 0.00 0.00 0.00 33 1011.1
20260506160013 13 160 11.3 22.5 0.00 0.00 0.00 33 1011.0
20260506154507 13 183 11.3 17.7 0.00 0.00 0.00 32 1011.0
20260506153002 13 172 12.9 19.3 0.00 0.00 0.00 32 1011.1
20260506151604 13 179 11.3 20.9 0.00 0.00 0.00 34 1011.0
20260506150154 13 173 9.7 20.9 0.00 0.00 0.00 35 1011.1
20260506144548 14 205 3.2 14.5 0.00 0.00 0.00 33 1011.2
20260506143045 13 152 11.3 20.9 0.00 0.00 0.00 34 1011.2
20260506141543 13 213 11.3 17.7 0.00 0.00 0.00 34 1011.2
20260506140036 13 220 8.0 22.5 0.00 0.00 0.00 34 1011.2
20260506134531 13 140 9.7 22.5 0.00 0.00 0.00 33 1011.3
20260506133026 13 164 11.3 17.7 0.00 0.00 0.00 33 1011.2
20260506131522 13 153 9.7 24.1 0.00 0.00 0.00 33 1011.3
20260506130018 13 216 8.0 22.5 0.00 0.00 0.00 33 1011.4
20260506124513 13 158 9.7 20.9 0.00 0.00 0.00 33 1011.4
20260506123012 13 153 11.3 19.3 0.00 0.00 0.00 33 1011.5
20260506121510 13 165 14.5 22.5 0.00 0.00 0.00 33 1011.7
20260506120110 13 169 11.3 20.9 0.00 0.00 0.00 31 1011.6
20260506114555 13 150 6.4 20.9 0.00 0.00 0.00 32 1011.6
20260506113052 13 207 8.0 14.5 0.00 0.00 0.00 34 1011.6
20260506111549 13 160 8.0 19.3 0.00 0.00 0.00 33 1011.8
20260506110050 13 198 9.7 19.3 0.00 0.00 0.00 32 1011.7
20260506104548 13 194 11.3 17.7 0.00 0.00 0.00 33 1011.9
20260506103042 12 158 9.7 24.1 0.00 0.00 0.00 32 1012.0
20260506101529 12 207 6.4 19.3 0.00 0.00 0.00 34 1011.9
20260506100024 12 220 8.0 17.7 0.00 0.00 0.00 34 1012.1
20260506094520 12 155 8.0 17.7 0.00 0.00 0.00 34 1012.2
20260506093020 12 219 9.7 16.1 0.00 0.00 0.00 37 1012.2
20260506091512 11 113 8.0 16.1 0.00 0.00 0.00 36 1012.3
20260506090005 11 210 4.8 16.1 0.00 0.00 0.00 36 1012.4
20260506084502 11 198 6.4 17.7 0.00 0.00 0.00 38 1012.5
20260506083057 11 206 9.7 16.1 0.00 0.00 0.00 38 1012.5
20260506081557 11 208 1.6 11.3 0.00 0.00 0.00 39 1012.6